Powrót do katalogu

STARLINK-37644

AktywnyŁącznośćSSO
NORAD 69042·PAYLOAD·🇺🇸 United States

Wystrzelony May 6, 2026 z Vandenberg Space Force Base

Loading…

Następne Przeloty (najbliższe 24 godziny)

TLE

ŚwieżeSource: CelesTrak SupGP

Epoka: Sep 14, 2026, 23:06 UTC

1 69042C 26101T   26257.96298611  .00082826  00000+0  25719-2 0  2573
2 69042  97.2849 111.5301 0002079  96.9536 156.7561 15.33386648    19

Śledź STARLINK-37644 w czasie rzeczywistym z AllMySat

Download on the App Store